Location: Ch�tillon
(48.8024°N, 2.2935°E)
Time: 13:07:50
(UTC+00:00)

LO-87 - Pass Details

Date: 06 July 2022
Orbit: 451 x 466 km, 97.4° (Epoch: 08 August)

Event Time Altitude Azimuth Distance (km) Brightness Sun altitude
Exits shadow 00:27:38 14° 262° (W) 1,379 ? -18.1°
Maximum altitude 00:28:02 14° 269° (W) 1,369 ? -18.1°
Drops below altitude 10° 00:30:01 10° 304° (NW) 1,625 ? -18.1°
Sets 00:32:51 0° 330° (NNW) 2,512 ? -18.0°
